DW8947 Weather Reports


time (UTC)temp
C
wind
direction
speed
KPH
gust
KPH
rain 1hr
cm
rain 24hr
cm
rain mn
cm
humidity
%
barometer
mb
20260502194204 20 285 1.6 4.8 0.00 0.00 0.00 56 1014.4
20260502191704 19 334 1.6 4.8 0.00 0.00 0.00 62 1014.4
20260502191205 19 268 1.6 4.8 0.00 0.00 0.00 63 1014.5
20260502190704 18 347 1.6 4.8 0.00 0.00 0.00 65 1014.6
20260502185704 18 277 1.6 4.8 0.00 0.00 0.00 65 1014.5
20260502184205 17 145 1.6 9.7 0.00 0.00 0.00 66 1014.6
20260502182705 17 318 1.6 4.8 0.00 0.00 0.00 69 1014.8
20260502182205 17 305 3.2 9.7 0.00 0.00 0.00 68 1015.0
20260502170205 15 3 1.6 4.8 0.00 0.00 0.00 77 1015.3
20260502164205 15 303 1.6 4.8 0.00 0.00 0.00 79 1015.3
20260502162205 14 126 1.6 4.8 0.00 0.00 0.00 80 1015.2
20260502161705 14 315 1.6 4.8 0.00 0.00 0.00 80 1015.3
20260502152205 11 302 1.6 3.2 0.00 0.00 0.00 90 1015.3
20260502151705 11 285 0.0 3.2 0.00 0.00 0.00 90 1015.3
20260502151205 11 242 0.0 3.2 0.00 0.00 0.00 90 1015.2
20260502150705 11 304 0.0 3.2 0.00 0.00 0.00 90 1015.2
20260502150205 11 304 0.0 3.2 0.00 0.00 0.00 90 1015.2
20260502130205 10 56 0.0 0.0 0.00 0.00 0.00 89 1015.0
20260502123705 10 56 0.0 1.6 0.00 0.00 0.00 89 1015.0
20260502123204 10 56 0.0 1.6 0.00 0.00 0.00 88 1015.1
20260502122705 10 56 0.0 0.0 0.00 0.00 0.00 88 1015.2
20260502122205 10 56 0.0 0.0 0.00 0.00 0.00 88 1015.2
20260502121704 10 56 0.0 0.0 0.00 0.00 0.00 88 1015.1
20260502120704 10 56 0.0 0.0 0.00 0.00 0.00 88 1015.2
20260502120204 10 56 0.0 0.0 0.00 0.00 0.00 88 1015.3
20260502115704 10 56 0.0 0.0 0.00 0.00 0.00 87 1015.4
20260502114204 11 56 0.0 0.0 0.00 0.00 0.00 86 1015.6
20260502112705 11 56 0.0 0.0 0.00 0.00 0.00 86 1015.7
20260502111705 11 56 0.0 0.0 0.00 0.00 0.00 86 1015.5
20260502110704 11 56 0.0 0.0 0.00 0.00 0.00 87 1015.3
20260502110204 11 56 0.0 0.0 0.00 0.00 0.00 86 1015.1
20260502105705 11 56 0.0 1.6 0.00 0.00 0.00 86 1015.1
20260502104204 11 56 0.0 0.0 0.00 0.00 0.00 85 1014.8
20260502102705 11 56 0.0 3.2 0.00 0.00 0.00 85 1014.8
20260502102205 11 56 0.0 3.2 0.00 0.00 0.00 85 1014.9
20260502101705 11 56 0.0 3.2 0.00 0.00 0.00 84 1014.8
20260502101205 11 56 0.0 0.0 0.00 0.00 0.00 84 1014.9
20260502100205 11 56 0.0 3.2 0.00 0.00 0.00 84 1014.9
20260502091205 11 56 0.0 0.0 0.00 0.00 0.00 84 1015.0
20260502090205 11 56 0.0 0.0 0.00 0.00 0.00 83 1015.1
20260502065205 12 56 0.0 0.0 0.00 0.00 0.00 78 1014.6
20260502064705 13 56 0.0 0.0 0.00 0.00 0.00 78 1014.6
20260502061705 13 56 0.0 0.0 0.00 0.00 0.00 77 1014.5
20260502061204 13 56 0.0 0.0 0.00 0.00 0.00 77 1014.5
20260502054704 13 56 0.0 1.6 0.00 0.00 0.00 76 1014.4
20260502054205 13 56 0.0 0.0 0.00 0.00 0.00 76 1014.4
20260502053705 13 56 0.0 0.0 0.00 0.00 0.00 76 1014.4
20260502053205 13 56 0.0 1.6 0.00 0.00 0.00 76 1014.4
20260502052705 13 56 0.0 3.2 0.00 0.00 0.00 74 1014.4
20260502050705 14 56 0.0 0.0 0.00 0.00 0.00 73 1014.3
20260502050205 14 56 0.0 3.2 0.00 0.00 0.00 72 1014.2
20260502045704 14 194 0.0 3.2 0.00 0.00 0.00 72 1014.2
20260502043705 15 61 0.0 1.6 0.00 0.00 0.00 72 1013.8
20260502043205 15 61 0.0 3.2 0.00 0.00 0.00 72 1013.8
20260502042205 15 90 1.6 3.2 0.00 0.00 0.00 72 1013.5
20260502041705 15 197 0.0 3.2 0.00 0.00 0.00 73 1013.5
20260502041205 15 178 0.0 3.2 0.00 0.00 0.00 71 1013.5
20260502040705 15 208 0.0 3.2 0.00 0.00 0.00 71 1013.5
20260502040205 15 235 0.0 3.2 0.00 0.00 0.00 72 1013.5
20260502035204 15 235 0.0 0.0 0.00 0.00 0.00 70 1013.4
20260502032705 16 259 0.0 3.2 0.00 0.00 0.00 66 1013.1
20260502032204 16 260 0.0 3.2 0.00 0.00 0.00 64 1013.1
20260502031205 16 260 1.6 4.8 0.00 0.00 0.00 64 1012.9
20260502030705 16 227 0.0 3.2 0.00 0.00 0.00 67 1012.8
20260502025705 17 210 0.0 3.2 0.00 0.00 0.00 67 1012.9
20260502024205 17 39 0.0 3.2 0.00 0.00 0.00 66 1012.6
20260502021705 18 337 1.6 3.2 0.00 0.00 0.00 60 1012.4
20260502021204 18 317 0.0 3.2 0.00 0.00 0.00 56 1012.7
20260502020704 18 35 1.6 4.8 0.00 0.00 0.00 57 1012.7
20260502015704 18 349 1.6 3.2 0.00 0.00 0.00 60 1012.6
20260502014705 18 88 0.0 3.2 0.00 0.00 0.00 61 1012.5
20260502014204 18 94 1.6 3.2 0.00 0.00 0.00 59 1012.5
20260502012204 19 355 1.6 4.8 0.00 0.00 0.00 56 1012.8
20260502011204 20 52 1.6 4.8 0.00 0.00 0.00 56 1012.7
20260502010705 20 359 0.0 3.2 0.00 0.00 0.00 58 1012.8
20260502010204 20 345 3.2 4.8 0.00 0.00 0.00 55 1012.8
20260502005204 20 344 1.6 3.2 0.00 0.00 0.00 57 1012.7
20260502004704 20 18 1.6 4.8 0.00 0.00 0.00 57 1012.7
20260502003204 20 335 1.6 4.8 0.00 0.00 0.00 53 1012.7
20260502002204 20 323 1.6 4.8 0.00 0.00 0.00 53 1012.6
20260502001705 20 344 1.6 8.0 0.00 0.00 0.00 51 1012.7
20260502000705 20 324 1.6 4.8 0.00 0.00 0.00 52 1012.7
20260502000204 20 340 1.6 4.8 0.00 0.00 0.00 52 1012.7
20260501235704 20 97 1.6 4.8 0.00 0.00 0.00 52 1012.7
20260501235204 20 44 1.6 4.8 0.00 0.00 0.00 52 1012.7
20260501234204 20 347 1.6 4.8 0.00 0.00 0.00 53 1012.8
20260501230204 20 341 1.6 1.6 0.00 0.00 0.00 57 1013.1
20260501225704 20 343 1.6 3.2 0.00 0.00 0.00 57 1013.2
20260501223205 20 328 1.6 3.2 0.00 0.00 0.00 59 1013.3
20260501222204 19 335 1.6 4.8 0.00 0.00 0.00 59 1013.5
20260501221205 20 315 1.6 4.8 0.00 0.00 0.00 58 1013.7
20260501220704 20 335 1.6 3.2 0.00 0.00 0.00 59 1013.7
20260501215704 20 324 1.6 3.2 0.00 0.00 0.00 58 1013.8
20260501214205 20 336 1.6 3.2 0.00 0.00 0.00 59 1013.8
20260501213204 20 314 1.6 3.2 0.00 0.00 0.00 59 1013.8
20260501212704 20 328 1.6 3.2 0.00 0.00 0.00 60 1013.8
20260501212205 20 351 1.6 4.8 0.00 0.00 0.00 58 1013.8
20260501211704 21 305 1.6 3.2 0.00 0.00 0.00 57 1013.9
20260501211204 21 307 1.6 4.8 0.00 0.00 0.00 57 1013.8
20260501204704 20 96 1.6 4.8 0.00 0.00 0.00 57 1013.9
20260501204204 20 318 1.6 4.8 0.00 0.00 0.00 57 1014.0
20260501202204 20 318 1.6 3.2 0.00 0.00 0.00 55 1014.2
20260501200704 20 261 1.6 3.2 0.00 0.00 0.00 55 1014.3
20260501195704 20 320 1.6 3.2 0.00 0.00 0.00 59 1014.4
20260501194704 20 213 0.0 4.8 0.00 0.00 0.00 58 1014.4